When you browse on this site, cookies collect data to enhance your experience and personalize the content and advertising you see.
Visit our Privacy Policy to learn more. By continuing to use the site, you agree to this use of cookies and data.
  • Em Portugal
  • Lista de países
  • Para 7 dias
  • Temperatura da água
  • Mapa do tempo
  • Widgets de tempo
  • user-avatar
    Iniciar Sessão

    Previsão horária em Panyuki

    Hoje, 29 Janeiro, Quarta-feira

    Tempo Temperatura Precipitação Vento Pressão Humidade
    00:00 -3°C° 0 mm 2 m/s 735 mmHg 94%
    01:00 -3°C° 0 mm 2 m/s 735 mmHg 94%
    02:00 -3°C° 0 mm 2 m/s 735 mmHg 94%
    03:00 -3°C° 0 mm 2 m/s 734 mmHg 93%
    04:00 -2°C° 0 mm 2 m/s 734 mmHg 93%
    05:00 -2°C° 0 mm 3 m/s 734 mmHg 93%
    06:00 -2°C° 0 mm 3 m/s 734 mmHg 93%
    07:00 -2°C° 0 mm 3 m/s 734 mmHg 94%
    08:00 -2°C° 0 mm 3 m/s 734 mmHg 94%
    09:00 -2°C° 0.1 mm 3 m/s 734 mmHg 95%
    10:00 -1°C° 0.1 mm 3 m/s 734 mmHg 95%
    11:00 0°C° 0.1 mm 3 m/s 733 mmHg 96%
    12:00 0°C° 0 mm 3 m/s 733 mmHg 95%
    13:00 0°C° 0 mm 3 m/s 733 mmHg 94%
    14:00 0°C° 0 mm 3 m/s 733 mmHg 93%
    15:00 0°C° 0 mm 3 m/s 733 mmHg 93%
    16:00 0°C° 0 mm 3 m/s 733 mmHg 93%
    17:00 -1°C° 0 mm 3 m/s 733 mmHg 93%
    18:00 -1°C° 0 mm 3 m/s 733 mmHg 93%
    19:00 -2°C° 0 mm 4 m/s 733 mmHg 93%
    20:00 -2°C° 0 mm 4 m/s 733 mmHg 93%
    21:00 -2°C° 0 mm 4 m/s 733 mmHg 93%
    22:00 -1°C° 0 mm 3 m/s 732 mmHg 93%
    23:00 -1°C° 0 mm 3 m/s 732 mmHg 92%

    Amanhã, 30 Janeiro, Quinta-feira

    Tempo Temperatura Precipitação Vento Pressão Humidade
    00:00 -1°C° 0 mm 3 m/s 732 mmHg 92%
    01:00 -1°C° 0 mm 3 m/s 732 mmHg 92%
    02:00 -1°C° 0 mm 3 m/s 732 mmHg 92%
    03:00 -1°C° 0 mm 3 m/s 731 mmHg 92%
    04:00 -3°C° 0 mm 4 m/s 731 mmHg 93%
    05:00 -3°C° 0 mm 4 m/s 731 mmHg 93%
    06:00 -3°C° 0 mm 4 m/s 731 mmHg 92%
    07:00 -3°C° 0 mm 4 m/s 730 mmHg 91%
    08:00 -3°C° 0 mm 4 m/s 730 mmHg 90%
    09:00 -3°C° 0.1 mm 4 m/s 730 mmHg 90%
    10:00 -2°C° 0.1 mm 4 m/s 729 mmHg 91%
    11:00 -2°C° 0.1 mm 4 m/s 729 mmHg 91%
    12:00 -2°C° 0.2 mm 4 m/s 729 mmHg 91%
    13:00 -2°C° 0.2 mm 4 m/s 729 mmHg 92%
    14:00 -2°C° 0.2 mm 4 m/s 729 mmHg 93%
    15:00 -2°C° 0.3 mm 4 m/s 729 mmHg 93%
    16:00 -2°C° 0.3 mm 4 m/s 728 mmHg 94%
    17:00 -2°C° 0.3 mm 4 m/s 728 mmHg 95%
    18:00 -2°C° 0.2 mm 3 m/s 728 mmHg 95%
    19:00 -2°C° 0.2 mm 3 m/s 728 mmHg 95%
    20:00 -2°C° 0.2 mm 2 m/s 728 mmHg 95%
    21:00 -2°C° 0 mm 2 m/s 728 mmHg 95%
    22:00 -3°C° 0 mm 2 m/s 728 mmHg 96%
    23:00 -1°C° 0 mm 1 m/s 728 mmHg 96%

    Depois de amanhã, 31 Janeiro, Sexta-feira

    Tempo Temperatura Precipitação Vento Pressão Humidade
    00:00 -2°C° 0 mm 1 m/s 728 mmHg 96%
    01:00 -2°C° 0 mm 1 m/s 728 mmHg 96%
    02:00 -2°C° 0 mm 1 m/s 728 mmHg 96%
    03:00 -3°C° 0 mm 1 m/s 728 mmHg 96%
    04:00 -3°C° 0 mm 1 m/s 728 mmHg 96%
    05:00 -3°C° 0 mm 1 m/s 727 mmHg 96%
    06:00 -3°C° 0 mm 1 m/s 728 mmHg 96%
    07:00 -3°C° 0 mm 1 m/s 728 mmHg 96%
    08:00 -4°C° 0 mm 1 m/s 728 mmHg 96%
    09:00 -3°C° 0 mm 1 m/s 728 mmHg 93%
    10:00 -2°C° 0 mm 1 m/s 728 mmHg 90%
    11:00 -1°C° 0 mm 1 m/s 728 mmHg 87%
    12:00 -1°C° 0 mm 1 m/s 729 mmHg 86%
    13:00 -1°C° 0 mm 0 m/s 729 mmHg 85%
    14:00 -1°C° 0 mm 0 m/s 729 mmHg 83%
    15:00 -2°C° 0 mm 0 m/s 730 mmHg 86%
    16:00 -2°C° 0 mm 0 m/s 730 mmHg 88%
    17:00 -2°C° 0 mm 0 m/s 730 mmHg 90%
    18:00 -3°C° 0 mm 0 m/s 731 mmHg 90%
    19:00 -3°C° 0 mm 0 m/s 731 mmHg 90%
    20:00 -3°C° 0 mm 0 m/s 732 mmHg 90%
    21:00 -3°C° 0 mm 0 m/s 732 mmHg 90%
    22:00 -3°C° 0 mm 0 m/s 732 mmHg 90%
    23:00 -3°C° 0 mm 0 m/s 732 mmHg 90%

    1 Fevereiro, Sábado

    Tempo Temperatura Precipitação Vento Pressão Humidade
    00:00 -3°C° 0 mm 0 m/s 733 mmHg 90%
    01:00 -2°C° 0 mm 1 m/s 733 mmHg 90%
    02:00 -2°C° 0 mm 1 m/s 733 mmHg 90%
    03:00 -2°C° 0 mm 1 m/s 733 mmHg 91%
    04:00 -2°C° 0 mm 1 m/s 734 mmHg 92%
    05:00 -2°C° 0 mm 1 m/s 734 mmHg 93%
    06:00 -2°C° 0 mm 1 m/s 734 mmHg 93%
    07:00 -2°C° 0 mm 1 m/s 734 mmHg 94%
    08:00 -2°C° 0 mm 1 m/s 734 mmHg 94%
    09:00 -4°C° 0 mm 2 m/s 734 mmHg 91%
    10:00 -3°C° 0 mm 2 m/s 734 mmHg 88%
    11:00 -3°C° 0 mm 2 m/s 734 mmHg 85%
    12:00 -2°C° 0 mm 2 m/s 734 mmHg 84%
    13:00 -2°C° 0 mm 3 m/s 734 mmHg 83%
    14:00 -2°C° 0 mm 3 m/s 734 mmHg 83%
    15:00 -2°C° 0 mm 3 m/s 733 mmHg 83%
    16:00 -2°C° 0 mm 3 m/s 733 mmHg 84%
    17:00 -2°C° 0 mm 3 m/s 733 mmHg 85%
    18:00 -2°C° 0.1 mm 3 m/s 732 mmHg 88%
    19:00 -3°C° 0.1 mm 4 m/s 732 mmHg 91%
    20:00 -4°C° 0.1 mm 4 m/s 731 mmHg 94%
    21:00 -3°C° 0.2 mm 4 m/s 731 mmHg 94%
    22:00 -3°C° 0.2 mm 4 m/s 731 mmHg 94%
    23:00 -3°C° 0.2 mm 4 m/s 730 mmHg 94%

    2 Fevereiro, Domingo

    Tempo Temperatura Precipitação Vento Pressão Humidade
    00:00 -2°C° 0.1 mm 4 m/s 730 mmHg 95%
    01:00 -2°C° 0.1 mm 4 m/s 730 mmHg 96%
    02:00 -1°C° 0.1 mm 4 m/s 729 mmHg 97%
    03:00 -1°C° 0.1 mm 4 m/s 729 mmHg 96%
    04:00 0°C° 0.1 mm 4 m/s 729 mmHg 96%
    05:00 0°C° 0.1 mm 4 m/s 729 mmHg 96%
    06:00 0°C° 0.1 mm 4 m/s 728 mmHg 96%
    07:00 0°C° 0.1 mm 4 m/s 728 mmHg 95%
    08:00 0°C° 0.1 mm 4 m/s 728 mmHg 95%
    09:00 +1°C° 0.1 mm 4 m/s 728 mmHg 95%
    10:00 +1°C° 0.1 mm 4 m/s 727 mmHg 95%
    11:00 +1°C° 0.1 mm 4 m/s 727 mmHg 95%
    12:00 +1°C° 0.3 mm 4 m/s 727 mmHg 95%
    13:00 +1°C° 0.3 mm 5 m/s 726 mmHg 95%
    14:00 +1°C° 0.3 mm 5 m/s 725 mmHg 95%
    15:00 +1°C° 0.6 mm 5 m/s 725 mmHg 95%
    16:00 +1°C° 0.6 mm 4 m/s 724 mmHg 95%
    17:00 +1°C° 0.6 mm 4 m/s 724 mmHg 95%
    18:00 +1°C° 0.6 mm 4 m/s 723 mmHg 96%
    19:00 +2°C° 0.6 mm 3 m/s 723 mmHg 96%
    20:00 +2°C° 0.6 mm 3 m/s 723 mmHg 97%
    21:00 +2°C° 0.6 mm 3 m/s 723 mmHg 97%
    22:00 +2°C° 0.6 mm 3 m/s 723 mmHg 97%
    23:00 +2°C° 0.6 mm 3 m/s 723 mmHg 98%

    3 Fevereiro, Segunda-feira

    Tempo Temperatura Precipitação Vento Pressão Humidade
    00:00 +2°C° 0.4 mm 3 m/s 723 mmHg 97%
    01:00 +1°C° 0.4 mm 4 m/s 724 mmHg 97%
    02:00 0°C° 0.4 mm 4 m/s 724 mmHg 96%
    03:00 0°C° 0.1 mm 4 m/s 725 mmHg 96%
    04:00 0°C° 0.1 mm 4 m/s 725 mmHg 96%
    05:00 -1°C° 0.1 mm 4 m/s 725 mmHg 96%
    06:00 -1°C° 0 mm 4 m/s 726 mmHg 96%
    07:00 0°C° 0 mm 3 m/s 726 mmHg 95%
    08:00 0°C° 0 mm 3 m/s 727 mmHg 94%
    09:00 -1°C° 0 mm 4 m/s 727 mmHg 90%
    10:00 -1°C° 0 mm 4 m/s 728 mmHg 86%
    11:00 -1°C° 0 mm 4 m/s 728 mmHg 82%
    12:00 -1°C° 0 mm 4 m/s 728 mmHg 83%
    13:00 -1°C° 0 mm 4 m/s 728 mmHg 83%
    14:00 -2°C° 0 mm 4 m/s 729 mmHg 84%
    15:00 -1°C° 0 mm 3 m/s 729 mmHg 87%
    16:00 -2°C° 0 mm 3 m/s 729 mmHg 90%
    17:00 -3°C° 0 mm 2 m/s 730 mmHg 93%
    18:00 -2°C° 0 mm 3 m/s 730 mmHg 89%
    19:00 -2°C° 0 mm 3 m/s 730 mmHg 86%
    20:00 -3°C° 0 mm 4 m/s 731 mmHg 82%
    21:00 -3°C° 0 mm 4 m/s 731 mmHg 84%
    22:00 -4°C° 0 mm 3 m/s 731 mmHg 86%
    23:00 -4°C° 0 mm 3 m/s 732 mmHg 88%
    Mostrar mais